This is the latest recevied weather packets stored in our database for station/object EA3RCF. If no packets are shown the sender has not sent any weather packets the latest 10 day(s).
| Time | Temp. | Humidity | Pressure | Rain* | Wind** | Luminosity | Snow |
|---|---|---|---|---|---|---|---|
| 1777535012 | 15° C | 94% | 1017.3 hPa | 0 mm | - | - | - |
| 1777534711 | 15° C | 94% | 1017.3 hPa | 0 mm | - | - | - |
| 1777534412 | 14.44° C | 94% | 1017.3 hPa | 0 mm | - | - | - |
| 1777534119 | 14.44° C | 94% | 1017.3 hPa | 0 mm | - | - | - |
| 1777533848 | 14.44° C | 94% | 1017.3 hPa | 0 mm | - | - | - |
| 1777533505 | 14.44° C | 94% | 1017.3 hPa | 0 mm | - | - | - |
| 1777533203 | 13.89° C | 94% | 1017.2 hPa | 0 mm | - | - | - |
| 1777532904 | 13.89° C | 94% | 1017.2 hPa | 0 mm | - | - | - |
| 1777532606 | 14.44° C | 94% | 1017.3 hPa | 0 mm | - | - | - |
| 1777532295 | 13.89° C | 94% | 1017.3 hPa | 0 mm | - | - | - |
| 1777531996 | 13.33° C | 94% | 1017.3 hPa | 0 mm | - | - | - |
| 1777531697 | 13.33° C | 94% | 1017.2 hPa | 0 mm | - | - | - |
| 1777531406 | 13.33° C | 94% | 1017.3 hPa | 0 mm | - | - | - |
| 1777531108 | 12.78° C | 94% | 1017.3 hPa | 0 mm | - | - | - |
| 1777530816 | 12.22° C | 94% | 1017.3 hPa | 0 mm | - | - | - |
| 1777530495 | 12.22° C | 94% | 1017.3 hPa | 0 mm | - | - | - |
| 1777530196 | 12.22° C | 94% | 1017.2 hPa | 0 mm | - | - | - |
| 1777529911 | 12.22° C | 94% | 1017.1 hPa | 0 mm | - | - | - |
| 1777529614 | 12.22° C | 94% | 1017.2 hPa | 0 mm | - | - | - |
| 1777529295 | 12.22° C | 94% | 1017 hPa | 0 mm | - | - | - |
| 1777529003 | 12.22° C | 94% | 1017 hPa | 0 mm | - | - | - |
| 1777528704 | 11.67° C | 94% | 1016.9 hPa | 0 mm | - | - | - |
| 1777528413 | 11.67° C | 94% | 1016.9 hPa | 0 mm | - | - | - |
| 1777528113 | 11.67° C | 94% | 1016.9 hPa | 0 mm | - | - | - |
| 1777527819 | 11.67° C | 94% | 1016.8 hPa | 0 mm | - | - | - |
* Rain latest hour (hover to see other rain measurements)
** Current wind speed in m/s (hover to see current wind gust speed)